| time (UTC) | temp F | wind direction | speed MPH | gust MPH | rain 1hr in | rain 24hr in | rain mn in | humidity % | barometer mb |
| 20260831222551 | 85 | 0 | 0.0 | 3.0 | 0.00 | 0.00 | 0.00 | 68 | 1019.3 |
| 20260831222047 | 86 | 0 | 0.0 | 3.0 | 0.00 | 0.00 | 0.00 | 68 | 1019.4 |
| 20260831221603 | 86 | 0 | 0.0 | 1.0 | 0.00 | 0.00 | 0.00 | 68 | 1019.4 |
| 20260831221046 | 86 | 0 | 0.0 | 5.0 | 0.00 | 0.00 | 0.00 | 68 | 1019.5 |
| 20260831220548 | 85 | 0 | 0.0 | 5.0 | 0.00 | 0.00 | 0.00 | 69 | 1019.5 |
| 20260831220101 | 84 | 110 | 1.0 | 5.0 | 0.00 | 0.00 | 0.00 | 69 | 1019.6 |
| 20260831215546 | 84 | 118 | 1.0 | 6.0 | 0.00 | 0.00 | 0.00 | 70 | 1019.6 |
| 20260831215047 | 84 | 104 | 2.0 | 6.0 | 0.00 | 0.00 | 0.00 | 71 | 1019.6 |
| 20260831214604 | 84 | 0 | 2.0 | 6.0 | 0.00 | 0.00 | 0.00 | 71 | 1019.6 |
| 20260831214046 | 84 | 88 | 2.0 | 6.0 | 0.00 | 0.00 | 0.00 | 72 | 1019.5 |
| 20260831213549 | 84 | 59 | 1.0 | 4.0 | 0.00 | 0.00 | 0.00 | 72 | 1019.6 |
| 20260831213050 | 83 | 197 | 1.0 | 4.0 | 0.00 | 0.00 | 0.00 | 72 | 1019.6 |
| 20260831212546 | 83 | 265 | 1.0 | 3.0 | 0.00 | 0.00 | 0.00 | 71 | 1019.7 |
| 20260831212046 | 82 | 166 | 0.0 | 4.0 | 0.00 | 0.00 | 0.00 | 73 | 1019.7 |
| 20260831211601 | 82 | 99 | 2.0 | 4.0 | 0.00 | 0.00 | 0.00 | 71 | 1019.7 |
| 20260831211045 | 82 | 90 | 0.0 | 4.0 | 0.00 | 0.00 | 0.00 | 74 | 1019.7 |
| 20260831210546 | 81 | 243 | 2.0 | 4.0 | 0.00 | 0.00 | 0.00 | 73 | 1019.7 |
| 20260831210055 | 81 | 0 | 1.0 | 4.0 | 0.00 | 0.00 | 0.00 | 75 | 1019.7 |
| 20260831205546 | 81 | 218 | 0.0 | 5.0 | 0.00 | 0.00 | 0.00 | 75 | 1019.8 |
| 20260831205051 | 81 | 107 | 1.0 | 5.0 | 0.00 | 0.00 | 0.00 | 76 | 1019.8 |
| 20260831204600 | 80 | 0 | 1.0 | 6.0 | 0.00 | 0.00 | 0.00 | 77 | 1019.9 |
| 20260831204047 | 80 | 221 | 2.0 | 7.0 | 0.00 | 0.00 | 0.00 | 77 | 1020.0 |
| 20260831203548 | 81 | 274 | 3.0 | 10.0 | 0.00 | 0.00 | 0.00 | 77 | 1020.1 |
| 20260831203051 | 81 | 330 | 1.0 | 11.0 | 0.00 | 0.00 | 0.00 | 77 | 1020.2 |
| 20260831202547 | 81 | 279 | 3.0 | 11.0 | 0.00 | 0.00 | 0.00 | 76 | 1020.3 |
| 20260831202047 | 82 | 278 | 1.0 | 4.0 | 0.00 | 0.00 | 0.00 | 76 | 1020.3 |
| 20260831201559 | 82 | 149 | 0.0 | 3.0 | 0.00 | 0.00 | 0.00 | 75 | 1020.3 |
| 20260831201050 | 83 | 148 | 1.0 | 3.0 | 0.00 | 0.00 | 0.00 | 73 | 1020.0 |
| 20260831200546 | 83 | 159 | 1.0 | 6.0 | 0.00 | 0.00 | 0.00 | 73 | 1020.0 |
| 20260831200057 | 83 | 171 | 0.0 | 6.0 | 0.00 | 0.00 | 0.00 | 74 | 1019.9 |
| 20260831195546 | 83 | 117 | 1.0 | 4.0 | 0.00 | 0.00 | 0.00 | 77 | 1019.9 |
| 20260831195044 | 83 | 150 | 1.0 | 4.0 | 0.00 | 0.00 | 0.00 | 72 | 1019.9 |
| 20260831194602 | 83 | 146 | 1.0 | 3.0 | 0.00 | 0.00 | 0.00 | 75 | 1020.0 |
| 20260831194044 | 83 | 143 | 0.0 | 7.0 | 0.00 | 0.00 | 0.00 | 73 | 1019.8 |
| 20260831193547 | 84 | 126 | 2.0 | 7.0 | 0.00 | 0.00 | 0.00 | 71 | 1020.0 |
| 20260831193103 | 86 | 141 | 2.0 | 7.0 | 0.00 | 0.00 | 0.00 | 68 | 1019.9 |
| 20260831192545 | 88 | 140 | 2.0 | 6.0 | 0.00 | 0.00 | 0.00 | 62 | 1019.9 |
| 20260831192045 | 90 | 130 | 2.0 | 4.0 | 0.00 | 0.00 | 0.00 | 61 | 1019.9 |
| 20260831191558 | 91 | 124 | 0.0 | 5.0 | 0.00 | 0.00 | 0.00 | 58 | 1019.9 |
| 20260831191048 | 91 | 126 | 1.0 | 7.0 | 0.00 | 0.00 | 0.00 | 57 | 1020.0 |
| 20260831190549 | 91 | 139 | 2.0 | 7.0 | 0.00 | 0.00 | 0.00 | 60 | 1020.0 |
| 20260831190059 | 91 | 138 | 3.0 | 6.0 | 0.00 | 0.00 | 0.00 | 57 | 1020.1 |
| 20260831185545 | 91 | 59 | 1.0 | 6.0 | 0.00 | 0.00 | 0.00 | 57 | 1020.1 |
| 20260831185045 | 91 | 157 | 1.0 | 6.0 | 0.00 | 0.00 | 0.00 | 61 | 1020.2 |
| 20260831184552 | 92 | 225 | 1.0 | 4.0 | 0.00 | 0.00 | 0.00 | 55 | 1020.2 |
| 20260831184046 | 92 | 0 | 0.0 | 2.0 | 0.00 | 0.00 | 0.00 | 57 | 1020.3 |
| 20260831183546 | 91 | 96 | 1.0 | 5.0 | 0.00 | 0.00 | 0.00 | 57 | 1020.2 |
| 20260831183103 | 90 | 0 | 1.0 | 5.0 | 0.00 | 0.00 | 0.00 | 59 | 1020.3 |
| 20260831182545 | 91 | 19 | 3.0 | 6.0 | 0.00 | 0.00 | 0.00 | 57 | 1020.3 |
| 20260831182045 | 90 | 340 | 1.0 | 6.0 | 0.00 | 0.00 | 0.00 | 60 | 1020.5 |
| 20260831181605 | 90 | 86 | 2.0 | 6.0 | 0.00 | 0.00 | 0.00 | 59 | 1020.5 |
| 20260831181046 | 90 | 150 | 2.0 | 4.0 | 0.00 | 0.00 | 0.00 | 61 | 1020.6 |
| 20260831180547 | 90 | 0 | 1.0 | 7.0 | 0.00 | 0.00 | 0.00 | 62 | 1020.7 |
| 20260831180106 | 89 | 39 | 3.0 | 8.0 | 0.00 | 0.00 | 0.00 | 62 | 1020.7 |
| 20260831175545 | 90 | 88 | 2.0 | 10.0 | 0.00 | 0.00 | 0.00 | 61 | 1020.9 |
| 20260831175045 | 89 | 146 | 1.0 | 10.0 | 0.00 | 0.00 | 0.00 | 61 | 1020.9 |
| 20260831174601 | 89 | 154 | 1.0 | 5.0 | 0.00 | 0.00 | 0.00 | 63 | 1021.0 |
| 20260831174046 | 89 | 0 | 2.0 | 5.0 | 0.00 | 0.00 | 0.00 | 63 | 1020.9 |
| 20260831173545 | 89 | 94 | 1.0 | 4.0 | 0.00 | 0.00 | 0.00 | 62 | 1020.9 |
| 20260831173104 | 88 | 0 | 1.0 | 7.0 | 0.00 | 0.00 | 0.00 | 64 | 1021.0 |
| 20260831172544 | 88 | 121 | 2.0 | 7.0 | 0.00 | 0.00 | 0.00 | 64 | 1021.1 |
| 20260831172047 | 89 | 134 | 1.0 | 4.0 | 0.00 | 0.00 | 0.00 | 64 | 1021.0 |
| 20260831171603 | 89 | 0 | 1.0 | 4.0 | 0.00 | 0.00 | 0.00 | 67 | 1021.1 |
| 20260831171044 | 88 | 240 | 0.0 | 7.0 | 0.00 | 0.00 | 0.00 | 69 | 1021.1 |
| 20260831170546 | 88 | 254 | 0.0 | 7.0 | 0.00 | 0.00 | 0.00 | 66 | 1021.1 |
| 20260831170058 | 87 | 81 | 1.0 | 6.0 | 0.00 | 0.00 | 0.00 | 67 | 1021.0 |
| 20260831165545 | 87 | 184 | 1.0 | 4.0 | 0.00 | 0.00 | 0.00 | 69 | 1021.1 |
| 20260831165044 | 87 | 286 | 0.0 | 7.0 | 0.00 | 0.00 | 0.00 | 65 | 1021.1 |
| 20260831164554 | 86 | 0 | 3.0 | 7.0 | 0.00 | 0.00 | 0.00 | 69 | 1021.2 |
| 20260831164045 | 86 | 188 | 2.0 | 3.0 | 0.00 | 0.00 | 0.00 | 69 | 1021.1 |
| 20260831163544 | 86 | 310 | 2.0 | 4.0 | 0.00 | 0.00 | 0.00 | 69 | 1021.2 |
| 20260831163106 | 86 | 203 | 1.0 | 4.0 | 0.00 | 0.00 | 0.00 | 69 | 1021.4 |
| 20260831162545 | 86 | 115 | 1.0 | 5.0 | 0.00 | 0.00 | 0.00 | 71 | 1021.4 |
| 20260831162043 | 85 | 0 | 2.0 | 5.0 | 0.00 | 0.00 | 0.00 | 70 | 1021.5 |
| 20260831161609 | 85 | 141 | 1.0 | 5.0 | 0.00 | 0.00 | 0.00 | 71 | 1021.4 |
| 20260831161044 | 85 | 174 | 1.0 | 5.0 | 0.00 | 0.00 | 0.00 | 71 | 1021.4 |
| 20260831160544 | 85 | 150 | 0.0 | 4.0 | 0.00 | 0.00 | 0.00 | 73 | 1021.3 |
| 20260831160106 | 85 | 180 | 1.0 | 6.0 | 0.00 | 0.00 | 0.00 | 71 | 1021.5 |
| 20260831155545 | 84 | 0 | 2.0 | 6.0 | 0.00 | 0.00 | 0.00 | 74 | 1021.5 |
| 20260831155048 | 84 | 136 | 2.0 | 6.0 | 0.00 | 0.00 | 0.00 | 71 | 1021.4 |
| 20260831154624 | 85 | 146 | 1.0 | 6.0 | 0.00 | 0.00 | 0.00 | 72 | 1021.5 |
| 20260831154044 | 85 | 182 | 0.0 | 4.0 | 0.00 | 0.00 | 0.00 | 74 | 1021.5 |
| 20260831153545 | 84 | 126 | 1.0 | 4.0 | 0.00 | 0.00 | 0.00 | 77 | 1021.5 |
| 20260831153104 | 84 | 232 | 2.0 | 4.0 | 0.00 | 0.00 | 0.00 | 72 | 1021.4 |
| 20260831152544 | 84 | 132 | 0.0 | 3.0 | 0.00 | 0.00 | 0.00 | 75 | 1021.5 |
| 20260831152045 | 83 | 169 | 2.0 | 3.0 | 0.00 | 0.00 | 0.00 | 76 | 1021.6 |
| 20260831151601 | 83 | 175 | 0.0 | 6.0 | 0.00 | 0.00 | 0.00 | 78 | 1021.6 |
| 20260831151045 | 82 | 120 | 3.0 | 6.0 | 0.00 | 0.00 | 0.00 | 76 | 1021.6 |
| 20260831150545 | 83 | 71 | 1.0 | 4.0 | 0.00 | 0.00 | 0.00 | 75 | 1021.6 |
| 20260831150106 | 82 | 0 | 0.0 | 4.0 | 0.00 | 0.00 | 0.00 | 76 | 1021.7 |
| 20260831145545 | 82 | 101 | 0.0 | 6.0 | 0.00 | 0.00 | 0.00 | 78 | 1021.8 |
| 20260831145047 | 82 | 103 | 1.0 | 8.0 | 0.00 | 0.00 | 0.00 | 78 | 1021.8 |
| 20260831144604 | 81 | 151 | 1.0 | 8.0 | 0.00 | 0.00 | 0.00 | 79 | 1021.7 |
| 20260831144047 | 81 | 163 | 0.0 | 6.0 | 0.00 | 0.00 | 0.00 | 78 | 1021.8 |
| 20260831143547 | 81 | 150 | 0.0 | 6.0 | 0.00 | 0.00 | 0.00 | 79 | 1021.8 |
| 20260831143114 | 80 | 80 | 1.0 | 6.0 | 0.00 | 0.00 | 0.00 | 79 | 1021.8 |
| 20260831142545 | 80 | 154 | 2.0 | 4.0 | 0.00 | 0.00 | 0.00 | 81 | 1021.7 |
| 20260831142044 | 80 | 60 | 2.0 | 9.0 | 0.00 | 0.00 | 0.00 | 81 | 1021.6 |
| 20260831141609 | 79 | 136 | 1.0 | 9.0 | 0.00 | 0.00 | 0.00 | 82 | 1021.7 |
| 20260831141047 | 79 | 150 | 2.0 | 8.0 | 0.00 | 0.00 | 0.00 | 81 | 1021.6 |
| 20260831140545 | 79 | 78 | 2.0 | 8.0 | 0.00 | 0.00 | 0.00 | 82 | 1021.6 |
| 20260831135549 | 78 | 133 | 1.0 | 5.0 | 0.00 | 0.00 | 0.00 | 83 | 1021.7 |
| 20260831135046 | 78 | 40 | 2.0 | 5.0 | 0.00 | 0.00 | 0.00 | 84 | 1021.7 |
| 20260831134605 | 78 | 109 | 2.0 | 5.0 | 0.00 | 0.00 | 0.00 | 85 | 1021.6 |
| 20260831134044 | 77 | 41 | 1.0 | 5.0 | 0.00 | 0.00 | 0.00 | 85 | 1021.8 |
| 20260831133548 | 77 | 141 | 1.0 | 7.0 | 0.00 | 0.00 | 0.00 | 85 | 1021.8 |
| 20260831133103 | 77 | 143 | 2.0 | 7.0 | 0.00 | 0.00 | 0.00 | 87 | 1021.8 |
| 20260831132547 | 76 | 0 | 3.0 | 6.0 | 0.00 | 0.00 | 0.00 | 87 | 1021.7 |
| 20260831132047 | 76 | 80 | 2.0 | 4.0 | 0.00 | 0.00 | 0.00 | 87 | 1021.8 |
| 20260831131620 | 76 | 63 | 1.0 | 4.0 | 0.00 | 0.00 | 0.00 | 88 | 1021.7 |
| 20260831131044 | 75 | 0 | 1.0 | 4.0 | 0.00 | 0.00 | 0.00 | 89 | 1021.8 |
| 20260831130549 | 75 | 0 | 0.0 | 2.0 | 0.00 | 0.00 | 0.00 | 89 | 1021.8 |
| 20260831130116 | 75 | 161 | 0.0 | 2.0 | 0.00 | 0.00 | 0.00 | 89 | 1021.6 |
| 20260831125545 | 75 | 0 | 0.0 | 1.0 | 0.00 | 0.00 | 0.00 | 90 | 1021.6 |
| 20260831125048 | 74 | 0 | 0.0 | 1.0 | 0.00 | 0.00 | 0.00 | 91 | 1021.7 |
| 20260831124607 | 74 | 0 | 0.0 | 1.0 | 0.00 | 0.00 | 0.00 | 91 | 1021.7 |
| 20260831124044 | 74 | 0 | 0.0 | 0.0 | 0.00 | 0.00 | 0.00 | 92 | 1021.7 |
| 20260831123547 | 74 | 0 | 0.0 | 0.0 | 0.00 | 0.00 | 0.00 | 94 | 1021.7 |
| 20260831123105 | 73 | 0 | 0.0 | 0.0 | 0.00 | 0.00 | 0.00 | 97 | 1021.8 |
| 20260831122545 | 72 | 0 | 0.0 | 0.0 | 0.00 | 0.00 | 0.00 | 96 | 1021.7 |
| 20260831122045 | 71 | 0 | 0.0 | 0.0 | 0.00 | 0.00 | 0.00 | 97 | 1021.8 |
| 20260831121612 | 70 | 0 | 0.0 | 0.0 | 0.00 | 0.00 | 0.00 | 97 | 1021.7 |
| 20260831121044 | 69 | 0 | 0.0 | 0.0 | 0.00 | 0.00 | 0.00 | 96 | 1021.6 |
| 20260831120545 | 69 | 0 | 0.0 | 0.0 | 0.00 | 0.00 | 0.00 | 96 | 1021.6 |
| 20260831120114 | 69 | 0 | 0.0 | 0.0 | 0.00 | 0.00 | 0.00 | 97 | 1021.7 |
| 20260831115544 | 68 | 0 | 0.0 | 0.0 | 0.00 | 0.00 | 0.00 | 96 | 1021.6 |
| 20260831115045 | 69 | 0 | 0.0 | 0.0 | 0.00 | 0.00 | 0.00 | 97 | 1021.4 |
| 20260831114555 | 67 | 0 | 0.0 | 0.0 | 0.00 | 0.00 | 0.00 | 97 | 1021.5 |
| 20260831114044 | 66 | 0 | 0.0 | 0.0 | 0.00 | 0.00 | 0.00 | 97 | 1021.5 |
| 20260831113544 | 65 | 0 | 0.0 | 0.0 | 0.00 | 0.00 | 0.00 | 97 | 1021.4 |
| 20260831113104 | 65 | 0 | 0.0 | 0.0 | 0.00 | 0.00 | 0.00 | 97 | 1021.4 |
| 20260831112547 | 65 | 0 | 0.0 | 0.0 | 0.00 | 0.00 | 0.00 | 97 | 1021.4 |
| 20260831112046 | 65 | 0 | 0.0 | 0.0 | 0.00 | 0.00 | 0.00 | 97 | 1021.4 |
| 20260831111606 | 65 | 0 | 0.0 | 0.0 | 0.00 | 0.00 | 0.00 | 97 | 1021.5 |
| 20260831111047 | 65 | 0 | 0.0 | 0.0 | 0.00 | 0.00 | 0.00 | 97 | 1021.4 |
| 20260831110545 | 65 | 0 | 0.0 | 0.0 | 0.00 | 0.00 | 0.00 | 97 | 1021.3 |
| 20260831110101 | 65 | 0 | 0.0 | 0.0 | 0.00 | 0.00 | 0.00 | 97 | 1021.3 |
| 20260831105545 | 65 | 0 | 0.0 | 0.0 | 0.00 | 0.00 | 0.00 | 97 | 1021.3 |
| 20260831105052 | 65 | 0 | 0.0 | 0.0 | 0.00 | 0.00 | 0.00 | 97 | 1021.2 |
| 20260831104605 | 65 | 0 | 0.0 | 0.0 | 0.00 | 0.00 | 0.00 | 97 | 1021.2 |
| 20260831104047 | 65 | 0 | 0.0 | 0.0 | 0.00 | 0.00 | 0.00 | 97 | 1021.2 |
| 20260831103544 | 65 | 0 | 0.0 | 0.0 | 0.00 | 0.00 | 0.00 | 97 | 1021.3 |
| 20260831103106 | 65 | 0 | 0.0 | 0.0 | 0.00 | 0.00 | 0.00 | 97 | 1021.3 |
| 20260831102549 | 65 | 0 | 0.0 | 0.0 | 0.00 | 0.00 | 0.00 | 97 | 1021.2 |
| 20260831102047 | 65 | 0 | 0.0 | 0.0 | 0.00 | 0.00 | 0.00 | 97 | 1021.3 |
| 20260831101604 | 65 | 0 | 0.0 | 0.0 | 0.00 | 0.00 | 0.00 | 97 | 1021.1 |
| 20260831101045 | 65 | 0 | 0.0 | 0.0 | 0.00 | 0.00 | 0.00 | 97 | 1021.1 |
| 20260831100545 | 65 | 0 | 0.0 | 0.0 | 0.00 | 0.00 | 0.00 | 97 | 1021.1 |
| 20260831100104 | 65 | 0 | 0.0 | 0.0 | 0.00 | 0.00 | 0.00 | 97 | 1021.1 |
| 20260831095546 | 65 | 0 | 0.0 | 0.0 | 0.00 | 0.00 | 0.00 | 97 | 1021.2 |
| 20260831095050 | 65 | 0 | 0.0 | 0.0 | 0.00 | 0.00 | 0.00 | 97 | 1021.1 |
| 20260831094606 | 65 | 0 | 0.0 | 0.0 | 0.00 | 0.00 | 0.00 | 97 | 1021.1 |
| 20260831094045 | 65 | 0 | 0.0 | 0.0 | 0.00 | 0.00 | 0.00 | 97 | 1021.1 |
| 20260831093545 | 65 | 0 | 0.0 | 0.0 | 0.00 | 0.00 | 0.00 | 97 | 1020.9 |
| 20260831093104 | 65 | 0 | 0.0 | 0.0 | 0.00 | 0.00 | 0.00 | 97 | 1021.0 |
| 20260831092545 | 65 | 0 | 0.0 | 0.0 | 0.00 | 0.00 | 0.00 | 97 | 1020.9 |
| 20260831092044 | 65 | 0 | 0.0 | 0.0 | 0.00 | 0.00 | 0.00 | 97 | 1020.9 |
| 20260831091603 | 65 | 0 | 0.0 | 0.0 | 0.00 | 0.00 | 0.00 | 97 | 1020.9 |
| 20260831091045 | 65 | 0 | 0.0 | 0.0 | 0.00 | 0.00 | 0.00 | 97 | 1020.8 |
| 20260831090548 | 66 | 0 | 0.0 | 0.0 | 0.00 | 0.00 | 0.00 | 97 | 1020.9 |
| 20260831090059 | 66 | 0 | 0.0 | 0.0 | 0.00 | 0.00 | 0.00 | 97 | 1020.8 |
| 20260831085546 | 65 | 0 | 0.0 | 0.0 | 0.00 | 0.00 | 0.00 | 97 | 1020.8 |
| 20260831085045 | 65 | 0 | 0.0 | 0.0 | 0.00 | 0.00 | 0.00 | 97 | 1020.8 |
| 20260831084604 | 65 | 0 | 0.0 | 0.0 | 0.00 | 0.00 | 0.00 | 97 | 1020.8 |
| 20260831084045 | 66 | 0 | 0.0 | 0.0 | 0.00 | 0.00 | 0.00 | 97 | 1020.9 |
| 20260831083545 | 66 | 0 | 0.0 | 0.0 | 0.00 | 0.00 | 0.00 | 97 | 1020.9 |
| 20260831083059 | 65 | 0 | 0.0 | 0.0 | 0.00 | 0.00 | 0.00 | 96 | 1021.0 |
| 20260831082546 | 65 | 0 | 0.0 | 0.0 | 0.00 | 0.00 | 0.00 | 96 | 1020.9 |
| 20260831082045 | 65 | 0 | 0.0 | 0.0 | 0.00 | 0.00 | 0.00 | 96 | 1020.9 |
| 20260831081558 | 66 | 0 | 0.0 | 0.0 | 0.00 | 0.00 | 0.00 | 96 | 1020.9 |
| 20260831081045 | 66 | 0 | 0.0 | 0.0 | 0.00 | 0.00 | 0.00 | 97 | 1021.0 |
| 20260831080547 | 66 | 0 | 0.0 | 0.0 | 0.00 | 0.00 | 0.00 | 96 | 1021.0 |
| 20260831080056 | 66 | 0 | 0.0 | 0.0 | 0.00 | 0.00 | 0.00 | 97 | 1020.9 |
| 20260831075548 | 66 | 0 | 0.0 | 0.0 | 0.00 | 0.00 | 0.00 | 97 | 1020.9 |
| 20260831075045 | 66 | 0 | 0.0 | 0.0 | 0.00 | 0.00 | 0.00 | 97 | 1020.9 |
| 20260831074554 | 65 | 0 | 0.0 | 0.0 | 0.00 | 0.00 | 0.00 | 96 | 1020.9 |
| 20260831074048 | 66 | 0 | 0.0 | 0.0 | 0.00 | 0.00 | 0.00 | 96 | 1021.0 |
| 20260831073544 | 66 | 0 | 0.0 | 0.0 | 0.00 | 0.00 | 0.00 | 96 | 1021.0 |
| 20260831073057 | 66 | 0 | 0.0 | 0.0 | 0.00 | 0.00 | 0.00 | 96 | 1021.0 |
| 20260831072544 | 66 | 0 | 0.0 | 0.0 | 0.00 | 0.00 | 0.00 | 96 | 1021.0 |
| 20260831072047 | 66 | 0 | 0.0 | 0.0 | 0.00 | 0.00 | 0.00 | 96 | 1020.9 |
| 20260831071554 | 66 | 0 | 0.0 | 0.0 | 0.00 | 0.00 | 0.00 | 96 | 1021.0 |
| 20260831071046 | 66 | 0 | 0.0 | 0.0 | 0.00 | 0.00 | 0.00 | 96 | 1021.0 |
| 20260831070545 | 66 | 0 | 0.0 | 0.0 | 0.00 | 0.00 | 0.00 | 96 | 1021.0 |
| 20260831070108 | 66 | 0 | 0.0 | 0.0 | 0.00 | 0.00 | 0.00 | 96 | 1021.1 |
| 20260831065545 | 66 | 0 | 0.0 | 0.0 | 0.00 | 0.00 | 0.00 | 96 | 1021.1 |
| 20260831065044 | 66 | 0 | 0.0 | 0.0 | 0.00 | 0.00 | 0.00 | 96 | 1021.1 |
| 20260831064609 | 66 | 0 | 0.0 | 0.0 | 0.00 | 0.00 | 0.00 | 96 | 1021.1 |
| 20260831064047 | 67 | 0 | 0.0 | 0.0 | 0.00 | 0.00 | 0.00 | 96 | 1021.1 |
| 20260831063545 | 67 | 0 | 0.0 | 0.0 | 0.00 | 0.00 | 0.00 | 96 | 1021.1 |
| 20260831063055 | 67 | 0 | 0.0 | 0.0 | 0.00 | 0.00 | 0.00 | 96 | 1021.0 |
| 20260831062545 | 67 | 0 | 0.0 | 0.0 | 0.00 | 0.00 | 0.00 | 96 | 1021.2 |
| 20260831062045 | 67 | 0 | 0.0 | 0.0 | 0.00 | 0.00 | 0.00 | 96 | 1021.2 |
| 20260831061606 | 67 | 0 | 0.0 | 0.0 | 0.00 | 0.00 | 0.00 | 96 | 1021.3 |
| 20260831061045 | 67 | 0 | 0.0 | 0.0 | 0.00 | 0.00 | 0.00 | 96 | 1021.2 |
| 20260831060546 | 67 | 0 | 0.0 | 0.0 | 0.00 | 0.00 | 0.00 | 96 | 1021.2 |
| 20260831060108 | 67 | 0 | 0.0 | 0.0 | 0.00 | 0.00 | 0.00 | 96 | 1021.3 |
| 20260831055545 | 67 | 0 | 0.0 | 0.0 | 0.00 | 0.00 | 0.00 | 96 | 1021.3 |
| 20260831055045 | 67 | 0 | 0.0 | 0.0 | 0.00 | 0.00 | 0.00 | 96 | 1021.3 |
| 20260831054607 | 67 | 0 | 0.0 | 0.0 | 0.00 | 0.00 | 0.00 | 96 | 1021.3 |
| 20260831054047 | 67 | 0 | 0.0 | 0.0 | 0.00 | 0.00 | 0.00 | 96 | 1021.3 |
| 20260831053550 | 67 | 0 | 0.0 | 0.0 | 0.00 | 0.00 | 0.00 | 95 | 1021.3 |
| 20260831053057 | 67 | 0 | 0.0 | 0.0 | 0.00 | 0.00 | 0.00 | 95 | 1021.3 |
| 20260831052547 | 67 | 0 | 0.0 | 0.0 | 0.00 | 0.00 | 0.00 | 95 | 1021.2 |
| 20260831052045 | 67 | 0 | 0.0 | 0.0 | 0.00 | 0.00 | 0.00 | 96 | 1021.3 |
| 20260831051601 | 67 | 0 | 0.0 | 0.0 | 0.00 | 0.00 | 0.00 | 96 | 1021.3 |
| 20260831051045 | 67 | 0 | 0.0 | 0.0 | 0.00 | 0.00 | 0.00 | 95 | 1021.3 |
| 20260831050545 | 67 | 0 | 0.0 | 0.0 | 0.00 | 0.00 | 0.00 | 95 | 1021.3 |
| 20260831050100 | 68 | 0 | 0.0 | 0.0 | 0.00 | 0.00 | 0.00 | 95 | 1021.3 |
| 20260831045545 | 68 | 0 | 0.0 | 0.0 | 0.00 | 0.00 | 0.00 | 95 | 1021.4 |
| 20260831045045 | 68 | 0 | 0.0 | 0.0 | 0.00 | 0.00 | 0.00 | 95 | 1021.3 |
| 20260831044636 | 68 | 0 | 0.0 | 0.0 | 0.00 | 0.00 | 0.00 | 95 | 1021.4 |
| 20260831044046 | 68 | 0 | 0.0 | 0.0 | 0.00 | 0.00 | 0.00 | 95 | 1021.4 |
| 20260831043545 | 68 | 0 | 0.0 | 0.0 | 0.00 | 0.00 | 0.00 | 95 | 1021.4 |
| 20260831043105 | 68 | 0 | 0.0 | 0.0 | 0.00 | 0.00 | 0.00 | 95 | 1021.3 |
| 20260831042545 | 68 | 0 | 0.0 | 0.0 | 0.00 | 0.00 | 0.00 | 95 | 1021.3 |
| 20260831042048 | 68 | 0 | 0.0 | 0.0 | 0.00 | 0.00 | 0.00 | 95 | 1021.2 |
| 20260831041615 | 68 | 0 | 0.0 | 0.0 | 0.00 | 0.00 | 0.00 | 95 | 1021.1 |
| 20260831041045 | 68 | 200 | 0.0 | 0.0 | 0.00 | 0.00 | 0.00 | 95 | 1021.2 |
| 20260831040546 | 68 | 0 | 0.0 | 0.0 | 0.00 | 0.00 | 0.00 | 95 | 1021.2 |
| 20260831040055 | 68 | 0 | 0.0 | 0.0 | 0.00 | 0.00 | 0.00 | 94 | 1021.2 |
| 20260831035544 | 68 | 0 | 0.0 | 0.0 | 0.00 | 0.00 | 0.00 | 94 | 1021.3 |
| 20260831035047 | 69 | 0 | 0.0 | 0.0 | 0.00 | 0.00 | 0.00 | 95 | 1021.3 |
| 20260831034607 | 69 | 0 | 0.0 | 0.0 | 0.00 | 0.00 | 0.00 | 94 | 1021.3 |
| 20260831034045 | 69 | 0 | 0.0 | 0.0 | 0.00 | 0.00 | 0.00 | 94 | 1021.4 |
| 20260831033545 | 69 | 0 | 0.0 | 0.0 | 0.00 | 0.00 | 0.00 | 94 | 1021.4 |
| 20260831033104 | 69 | 0 | 0.0 | 0.0 | 0.00 | 0.00 | 0.00 | 94 | 1021.5 |
| 20260831032545 | 69 | 0 | 0.0 | 0.0 | 0.00 | 0.00 | 0.00 | 94 | 1021.5 |
| 20260831032047 | 69 | 0 | 0.0 | 0.0 | 0.00 | 0.00 | 0.00 | 94 | 1021.6 |
| 20260831031609 | 69 | 0 | 0.0 | 0.0 | 0.00 | 0.00 | 0.00 | 94 | 1021.5 |
| 20260831031044 | 69 | 0 | 0.0 | 0.0 | 0.00 | 0.00 | 0.00 | 93 | 1021.6 |
| 20260831030545 | 69 | 0 | 0.0 | 0.0 | 0.00 | 0.00 | 0.00 | 94 | 1021.6 |
| 20260831030055 | 69 | 0 | 0.0 | 0.0 | 0.00 | 0.00 | 0.00 | 93 | 1021.7 |
| 20260831025546 | 69 | 0 | 0.0 | 0.0 | 0.00 | 0.00 | 0.00 | 93 | 1021.7 |
| 20260831025045 | 69 | 0 | 0.0 | 0.0 | 0.00 | 0.00 | 0.00 | 93 | 1021.8 |
| 20260831024617 | 69 | 0 | 0.0 | 0.0 | 0.00 | 0.00 | 0.00 | 93 | 1021.8 |
| 20260831024046 | 70 | 0 | 0.0 | 0.0 | 0.00 | 0.00 | 0.00 | 93 | 1021.8 |
| 20260831023545 | 70 | 0 | 0.0 | 0.0 | 0.00 | 0.00 | 0.00 | 93 | 1021.8 |
| 20260831023104 | 70 | 0 | 0.0 | 0.0 | 0.00 | 0.00 | 0.00 | 93 | 1021.8 |
| 20260831022546 | 70 | 0 | 0.0 | 0.0 | 0.00 | 0.00 | 0.00 | 92 | 1021.7 |
| 20260831022103 | 70 | 0 | 0.0 | 0.0 | 0.00 | 0.00 | 0.00 | 92 | 1021.8 |
| 20260831021556 | 70 | 0 | 0.0 | 0.0 | 0.00 | 0.00 | 0.00 | 92 | 1021.8 |
| 20260831021046 | 70 | 0 | 0.0 | 0.0 | 0.00 | 0.00 | 0.00 | 92 | 1021.5 |
| 20260831020546 | 70 | 0 | 0.0 | 0.0 | 0.00 | 0.00 | 0.00 | 91 | 1021.4 |
| 20260831020056 | 70 | 0 | 0.0 | 0.0 | 0.00 | 0.00 | 0.00 | 91 | 1021.5 |
| 20260831015547 | 71 | 0 | 0.0 | 0.0 | 0.00 | 0.00 | 0.00 | 91 | 1021.4 |
| 20260831015046 | 71 | 0 | 0.0 | 0.0 | 0.00 | 0.00 | 0.00 | 91 | 1021.4 |
| 20260831014554 | 71 | 0 | 0.0 | 0.0 | 0.00 | 0.00 | 0.00 | 91 | 1021.3 |
| 20260831014045 | 71 | 0 | 0.0 | 0.0 | 0.00 | 0.00 | 0.00 | 90 | 1021.4 |
| 20260831013547 | 71 | 0 | 0.0 | 0.0 | 0.00 | 0.00 | 0.00 | 90 | 1021.4 |
| 20260831013107 | 71 | 0 | 0.0 | 0.0 | 0.00 | 0.00 | 0.00 | 89 | 1021.3 |
| 20260831012545 | 72 | 0 | 0.0 | 0.0 | 0.00 | 0.00 | 0.00 | 89 | 1021.4 |
| 20260831012049 | 72 | 0 | 0.0 | 0.0 | 0.00 | 0.00 | 0.00 | 89 | 1021.3 |
| 20260831011557 | 72 | 0 | 0.0 | 0.0 | 0.00 | 0.00 | 0.00 | 90 | 1021.4 |
| 20260831011046 | 72 | 0 | 0.0 | 0.0 | 0.00 | 0.00 | 0.00 | 89 | 1021.4 |
| 20260831010549 | 72 | 0 | 0.0 | 0.0 | 0.00 | 0.00 | 0.00 | 89 | 1021.3 |
| 20260831010056 | 72 | 0 | 0.0 | 0.0 | 0.00 | 0.00 | 0.00 | 88 | 1021.1 |
| 20260831005548 | 72 | 0 | 0.0 | 0.0 | 0.00 | 0.00 | 0.00 | 88 | 1021.0 |
| 20260831005049 | 73 | 0 | 0.0 | 0.0 | 0.00 | 0.00 | 0.00 | 87 | 1020.9 |
| 20260831004605 | 73 | 0 | 0.0 | 0.0 | 0.00 | 0.00 | 0.00 | 87 | 1020.9 |
| 20260831004046 | 73 | 0 | 0.0 | 0.0 | 0.00 | 0.00 | 0.00 | 87 | 1020.9 |
| 20260831003548 | 73 | 0 | 0.0 | 0.0 | 0.00 | 0.00 | 0.00 | 86 | 1020.9 |
| 20260831003106 | 74 | 0 | 0.0 | 0.0 | 0.00 | 0.00 | 0.00 | 86 | 1020.8 |
| 20260831002545 | 74 | 0 | 0.0 | 0.0 | 0.00 | 0.00 | 0.00 | 86 | 1020.8 |
| 20260831002045 | 74 | 0 | 0.0 | 0.0 | 0.00 | 0.00 | 0.00 | 85 | 1020.8 |
| 20260831001556 | 75 | 0 | 0.0 | 0.0 | 0.00 | 0.00 | 0.00 | 84 | 1020.8 |
| 20260831001048 | 75 | 0 | 0.0 | 0.0 | 0.00 | 0.00 | 0.00 | 83 | 1021.0 |
| 20260831000546 | 76 | 0 | 0.0 | 0.0 | 0.00 | 0.00 | 0.00 | 82 | 1020.9 |
| 20260831000056 | 76 | 0 | 0.0 | 0.0 | 0.00 | 0.00 | 0.00 | 81 | 1020.9 |
| 20260830235549 | 77 | 0 | 0.0 | 0.0 | 0.00 | 0.00 | 0.00 | 81 | 1021.0 |
| 20260830235048 | 77 | 0 | 0.0 | 0.0 | 0.00 | 0.00 | 0.00 | 81 | 1020.9 |
| 20260830234604 | 78 | 0 | 0.0 | 0.0 | 0.00 | 0.00 | 0.00 | 79 | 1020.9 |
| 20260830234045 | 78 | 0 | 0.0 | 0.0 | 0.00 | 0.00 | 0.00 | 78 | 1020.9 |
| 20260830233545 | 79 | 0 | 0.0 | 1.0 | 0.00 | 0.00 | 0.00 | 77 | 1021.0 |
| 20260830233055 | 79 | 0 | 0.0 | 1.0 | 0.00 | 0.00 | 0.00 | 77 | 1020.9 |
| 20260830232550 | 79 | 200 | 0.0 | 1.0 | 0.00 | 0.00 | 0.00 | 76 | 1021.0 |
| 20260830232046 | 80 | 0 | 0.0 | 3.0 | 0.00 | 0.00 | 0.00 | 77 | 1020.9 |
| 20260830231602 | 80 | 0 | 1.0 | 3.0 | 0.00 | 0.00 | 0.00 | 75 | 1021.0 |
| 20260830231044 | 80 | 0 | 0.0 | 0.0 | 0.00 | 0.00 | 0.00 | 75 | 1021.0 |
| 20260830230548 | 81 | 0 | 0.0 | 0.0 | 0.00 | 0.00 | 0.00 | 75 | 1020.9 |
| 20260830230055 | 81 | 0 | 0.0 | 0.0 | 0.00 | 0.00 | 0.00 | 74 | 1020.9 |
| 20260830225545 | 82 | 0 | 0.0 | 0.0 | 0.00 | 0.00 | 0.00 | 71 | 1020.9 |
| 20260830225045 | 83 | 0 | 0.0 | 0.0 | 0.00 | 0.00 | 0.00 | 71 | 1020.9 |
| 20260830224603 | 84 | 0 | 0.0 | 1.0 | 0.00 | 0.00 | 0.00 | 69 | 1020.9 |
| 20260830224045 | 85 | 0 | 0.0 | 1.0 | 0.00 | 0.00 | 0.00 | 66 | 1020.9 |
| 20260830223545 | 85 | 0 | 0.0 | 2.0 | 0.00 | 0.00 | 0.00 | 66 | 1020.8 |
| 20260830223102 | 86 | 0 | 1.0 | 2.0 | 0.00 | 0.00 | 0.00 | 66 | 1020.8 |